Time,TemperatureF,DewpointF,PressureIn,WindDirection,WindDirectionDegrees,WindSpeedMPH,WindSpeedGustMPH,Humidity,HourlyPrecipIn,Conditions,Clouds,dailyrainin,SolarRadiationWatts/m^2,SoftwareType,DateUTC
2013-05-16 00:02:00,46.0,45.0,-100.00,North,0,0.0,4.0,98,0.00,,,0.07,39.000000,,2013-05-16 07:02:00,
2013-05-16 00:12:00,46.0,45.0,-100.00,North,0,0.0,4.0,98,0.00,,,0.07,39.000000,,2013-05-16 07:12:00,
2013-05-16 00:24:00,46.0,45.0,-100.00,North,0,0.0,4.0,98,0.00,,,0.07,39.000000,,2013-05-16 07:24:00,
2013-05-16 00:34:00,46.0,45.0,-100.00,North,0,0.0,4.0,98,0.00,,,0.07,39.000000,,2013-05-16 07:34:00,
2013-05-16 01:03:00,46.0,46.0,-100.00,North,0,0.0,0.0,100,0.00,,,0.07,39.000000,,2013-05-16 08:03:00,
2013-05-16 01:13:00,46.0,46.0,-100.00,North,0,0.0,0.0,100,0.00,,,0.07,39.000000,,2013-05-16 08:13:00,
2013-05-16 01:23:00,46.0,46.0,-100.00,North,0,0.0,0.0,100,0.00,,,0.07,39.000000,,2013-05-16 08:23:00,
2013-05-16 01:34:00,46.0,46.0,-100.00,North,0,0.0,0.0,100,0.00,,,0.07,39.000000,,2013-05-16 08:34:00,
2013-05-16 02:04:00,45.0,45.0,-100.00,North,0,0.0,0.0,100,0.00,,,0.07,38.000000,,2013-05-16 09:04:00,
2013-05-16 02:14:00,45.0,45.0,-100.00,North,0,0.0,0.0,100,0.00,,,0.07,38.000000,,2013-05-16 09:14:00,
2013-05-16 02:24:00,45.0,45.0,-100.00,North,0,0.0,0.0,100,0.00,,,0.07,38.000000,,2013-05-16 09:24:00,
2013-05-16 02:35:00,45.0,45.0,-100.00,North,0,0.0,0.0,100,0.00,,,0.07,38.000000,,2013-05-16 09:35:00,
2013-05-16 03:04:00,45.0,45.0,-100.00,NE,41,0.0,0.0,100,0.00,,,0.07,38.000000,,2013-05-16 10:04:00,
2013-05-16 03:15:00,45.0,45.0,-100.00,NE,41,0.0,0.0,100,0.00,,,0.07,38.000000,,2013-05-16 10:15:00,
2013-05-16 03:24:00,45.0,45.0,-100.00,NE,41,0.0,0.0,100,0.00,,,0.07,38.000000,,2013-05-16 10:24:00,
2013-05-16 03:35:00,45.0,45.0,-100.00,NE,41,0.0,0.0,100,0.00,,,0.07,38.000000,,2013-05-16 10:35:00,
2013-05-16 04:05:00,45.0,45.0,-100.00,North,0,0.0,0.0,100,0.00,,,0.07,41.000000,,2013-05-16 11:05:00,
2013-05-16 04:14:00,45.0,45.0,-100.00,North,0,0.0,0.0,100,0.00,,,0.07,41.000000,,2013-05-16 11:14:00,
2013-05-16 04:25:00,45.0,45.0,-100.00,North,0,0.0,0.0,100,0.00,,,0.07,41.000000,,2013-05-16 11:25:00,
2013-05-16 04:35:00,45.0,45.0,-100.00,North,0,0.0,0.0,100,0.00,,,0.07,41.000000,,2013-05-16 11:35:00,
2013-05-16 05:06:00,44.0,44.0,-100.00,North,0,0.0,0.0,100,0.01,,,0.08,44.000000,,2013-05-16 12:06:00,
2013-05-16 05:13:00,44.0,44.0,-100.00,North,0,0.0,0.0,100,0.01,,,0.08,44.000000,,2013-05-16 12:13:00,
2013-05-16 05:23:00,44.0,44.0,-100.00,North,0,0.0,0.0,100,0.01,,,0.08,44.000000,,2013-05-16 12:23:00,
2013-05-16 05:34:00,44.0,44.0,-100.00,North,0,0.0,0.0,100,0.01,,,0.08,44.000000,,2013-05-16 12:34:00,
2013-05-16 06:04:00,44.0,44.0,-100.00,North,0,0.0,0.0,100,0.03,,,0.11,45.000000,,2013-05-16 13:04:00,
2013-05-16 06:12:00,44.0,44.0,-100.00,North,0,0.0,0.0,100,0.03,,,0.11,45.000000,,2013-05-16 13:12:00,
2013-05-16 06:26:00,44.0,44.0,-100.00,North,0,0.0,0.0,100,0.03,,,0.11,45.000000,,2013-05-16 13:26:00,
2013-05-16 06:35:00,44.0,44.0,-100.00,North,0,0.0,0.0,100,0.03,,,0.11,45.000000,,2013-05-16 13:35:00,
2013-05-16 06:37:00,44.0,44.0,-100.00,North,0,0.0,0.0,100,0.01,,,0.12,45.000000,,2013-05-16 13:37:00,
2013-05-16 07:05:00,44.0,44.0,-100.00,North,0,0.0,0.0,100,0.01,,,0.12,45.000000,,2013-05-16 14:05:00,
2013-05-16 07:15:00,44.0,44.0,-100.00,North,0,0.0,0.0,100,0.01,,,0.12,45.000000,,2013-05-16 14:15:00,
2013-05-16 07:23:00,44.0,44.0,-100.00,North,0,0.0,0.0,100,0.01,,,0.12,45.000000,,2013-05-16 14:23:00,
2013-05-16 07:37:00,44.0,44.0,-100.00,North,0,0.0,1.0,100,0.00,,,0.11,45.000000,,2013-05-16 14:37:00,
2013-05-16 08:08:00,44.0,44.0,-100.00,North,0,0.0,1.0,100,0.00,,,0.11,45.000000,,2013-05-16 15:08:00,
2013-05-16 08:17:00,44.0,44.0,-100.00,North,0,0.0,1.0,100,0.00,,,0.11,45.000000,,2013-05-16 15:17:00,
2013-05-16 08:28:00,44.0,44.0,-100.00,North,0,0.0,1.0,100,0.00,,,0.11,45.000000,,2013-05-16 15:28:00,
2013-05-16 08:37:00,45.0,-99.9,-100.00,North,0,0.0,0.0,100,-99.99,,,0.11,45.000000,,2013-05-16 15:37:00,
2013-05-16 09:09:00,45.0,45.0,-100.00,North,0,0.0,0.0,100,-99.99,,,0.11,45.000000,,2013-05-16 16:09:00,
2013-05-16 09:19:00,45.0,45.0,-100.00,North,0,0.0,0.0,100,-99.99,,,0.11,45.000000,,2013-05-16 16:19:00,
2013-05-16 09:30:00,45.0,45.0,-100.00,North,0,0.0,0.0,100,-99.99,,,0.11,45.000000,,2013-05-16 16:30:00,
2013-05-16 09:37:00,46.0,46.0,-100.00,North,0,0.0,0.0,100,-99.99,,,0.11,44.000000,,2013-05-16 16:37:00,
2013-05-16 10:10:00,46.0,46.0,-100.00,North,0,0.0,0.0,100,-99.99,,,0.11,44.000000,,2013-05-16 17:10:00,
2013-05-16 10:20:00,46.0,46.0,-100.00,North,0,0.0,0.0,100,-99.99,,,0.11,44.000000,,2013-05-16 17:20:00,
2013-05-16 10:30:00,46.0,46.0,-100.00,North,0,0.0,0.0,100,-99.99,,,0.11,44.000000,,2013-05-16 17:30:00,
2013-05-16 10:37:00,-999.0,-99.9,-100.00,NE,51,0.0,1.0,100,0.00,,,0.11,43.000000,,2013-05-16 17:37:00,
2013-05-16 11:10:00,46.0,46.0,-100.00,NE,51,0.0,1.0,100,0.00,,,0.11,43.000000,,2013-05-16 18:10:00,
2013-05-16 11:20:00,46.0,46.0,-100.00,NE,51,0.0,1.0,100,0.00,,,0.11,43.000000,,2013-05-16 18:20:00,
2013-05-16 11:30:00,-999.0,-99.9,-100.00,NE,51,0.0,1.0,100,0.00,,,0.11,43.000000,,2013-05-16 18:30:00,
2013-05-16 11:37:00,48.0,-99.9,-100.00,NNE,12,0.0,2.0,100,-99.99,,,0.11,40.000000,,2013-05-16 18:37:00,
2013-05-16 12:10:00,48.0,48.0,-100.00,NNE,12,0.0,2.0,100,-99.99,,,0.11,40.000000,,2013-05-16 19:10:00,
2013-05-16 12:20:00,48.0,48.0,-100.00,NNE,12,0.0,2.0,100,-99.99,,,0.11,40.000000,,2013-05-16 19:20:00,
2013-05-16 12:30:00,48.0,48.0,-100.00,NNE,12,0.0,2.0,100,-99.99,,,0.11,40.000000,,2013-05-16 19:30:00,
2013-05-16 12:37:00,-999.0,-99.9,-100.00,North,358,0.0,2.0,96,0.00,,,0.11,37.000000,,2013-05-16 19:37:00,
2013-05-16 13:10:00,-999.0,-99.9,-100.00,North,358,0.0,2.0,96,0.00,,,0.11,37.000000,,2013-05-16 20:10:00,
2013-05-16 13:20:00,50.0,-99.9,-100.00,North,358,0.0,2.0,96,0.00,,,0.11,37.000000,,2013-05-16 20:20:00,
2013-05-16 13:30:00,50.0,49.0,-100.00,North,358,0.0,2.0,96,0.00,,,0.11,37.000000,,2013-05-16 20:30:00,
2013-05-16 13:37:00,53.0,49.0,-100.00,NE,55,2.0,3.0,85,0.00,,,0.11,32.000000,,2013-05-16 20:37:00,
2013-05-16 14:10:00,53.0,-99.9,-100.00,NE,55,2.0,3.0,85,0.00,,,0.11,32.000000,,2013-05-16 21:10:00,
2013-05-16 14:20:00,53.0,-99.9,-100.00,NE,55,2.0,3.0,85,0.00,,,0.11,32.000000,,2013-05-16 21:20:00,
2013-05-16 14:29:00,53.0,49.0,-100.00,NE,55,2.0,3.0,85,0.00,,,0.11,32.000000,,2013-05-16 21:29:00,
2013-05-16 14:37:00,56.0,47.0,-100.00,ENE,59,2.0,4.0,73,0.00,,,0.11,26.000000,,2013-05-16 21:37:00,
2013-05-16 15:08:00,56.0,47.0,-100.00,ENE,59,2.0,4.0,73,0.00,,,0.11,26.000000,,2013-05-16 22:08:00,
2013-05-16 15:20:00,56.0,47.0,-100.00,ENE,59,2.0,4.0,73,0.00,,,0.11,26.000000,,2013-05-16 22:20:00,
2013-05-16 15:30:00,56.0,47.0,-100.00,ENE,59,2.0,4.0,73,0.00,,,0.11,26.000000,,2013-05-16 22:30:00,
2013-05-16 16:06:00,58.0,47.0,-100.00,ENE,60,2.0,4.0,67,0.00,,,0.11,24.000000,,2013-05-16 23:06:00,
2013-05-16 16:16:00,58.0,47.0,-100.00,ENE,60,2.0,4.0,67,0.00,,,0.11,24.000000,,2013-05-16 23:16:00,
2013-05-16 16:24:00,58.0,47.0,-100.00,ENE,60,2.0,4.0,67,0.00,,,0.11,24.000000,,2013-05-16 23:24:00,
2013-05-16 16:34:00,58.0,47.0,-100.00,ENE,60,2.0,4.0,67,0.00,,,0.11,24.000000,,2013-05-16 23:34:00,
2013-05-16 17:02:00,58.0,46.0,-100.00,NE,54,2.0,3.0,64,0.00,,,0.11,21.000000,,2013-05-17 00:02:00,
2013-05-16 17:13:00,58.0,46.0,-100.00,NE,54,2.0,3.0,64,0.00,,,0.11,21.000000,,2013-05-17 00:13:00,
2013-05-16 17:22:00,58.0,46.0,-100.00,NE,54,2.0,3.0,64,0.00,,,0.11,21.000000,,2013-05-17 00:22:00,
2013-05-16 17:33:00,58.0,46.0,-100.00,NE,54,2.0,3.0,64,0.00,,,0.11,21.000000,,2013-05-17 00:33:00,
2013-05-16 18:03:00,58.0,48.0,-100.00,NE,41,1.0,3.0,69,0.00,,,0.11,20.000000,,2013-05-17 01:03:00,
2013-05-16 18:12:00,58.0,48.0,-100.00,NE,41,1.0,3.0,69,0.00,,,0.11,20.000000,,2013-05-17 01:12:00,
2013-05-16 18:23:00,58.0,48.0,-100.00,NE,41,1.0,3.0,69,0.00,,,0.11,20.000000,,2013-05-17 01:23:00,
2013-05-16 18:31:00,58.0,48.0,-100.00,NE,41,1.0,3.0,69,0.00,,,0.11,20.000000,,2013-05-17 01:31:00,
2013-05-16 19:02:00,57.0,49.0,-100.00,NE,37,1.0,2.0,74,0.00,,,0.11,21.000000,,2013-05-17 02:02:00,
2013-05-16 19:11:00,57.0,49.0,-100.00,NE,37,1.0,2.0,74,0.00,,,0.11,21.000000,,2013-05-17 02:11:00,
2013-05-16 19:21:00,57.0,49.0,-100.00,NE,37,1.0,2.0,74,0.00,,,0.11,21.000000,,2013-05-17 02:21:00,
2013-05-16 19:32:00,57.0,49.0,-100.00,NE,37,1.0,2.0,74,0.00,,,0.11,21.000000,,2013-05-17 02:32:00,
2013-05-16 20:01:00,55.0,48.0,-100.00,NNE,27,0.0,2.0,78,0.00,,,0.09,22.000000,,2013-05-17 03:01:00,
2013-05-16 20:11:00,55.0,48.0,-100.00,NNE,27,0.0,2.0,78,0.00,,,0.09,22.000000,,2013-05-17 03:11:00,
2013-05-16 20:22:00,55.0,48.0,-100.00,NNE,27,0.0,2.0,78,0.00,,,0.09,22.000000,,2013-05-17 03:22:00,
2013-05-16 20:33:00,55.0,48.0,-100.00,NNE,27,0.0,2.0,78,0.00,,,0.09,22.000000,,2013-05-17 03:33:00,
2013-05-16 21:02:00,52.0,47.0,-100.00,North,0,0.0,1.0,84,0.00,,,0.07,22.000000,,2013-05-17 04:02:00,
2013-05-16 21:13:00,52.0,47.0,-100.00,North,0,0.0,1.0,84,0.00,,,0.07,22.000000,,2013-05-17 04:13:00,
2013-05-16 21:23:00,52.0,47.0,-100.00,North,0,0.0,1.0,84,0.00,,,0.07,22.000000,,2013-05-17 04:23:00,
2013-05-16 21:33:00,52.0,47.0,-100.00,North,0,0.0,1.0,84,0.00,,,0.07,22.000000,,2013-05-17 04:33:00,
2013-05-16 22:02:00,49.0,47.0,-100.00,North,0,0.0,1.0,93,0.00,,,0.05,23.000000,,2013-05-17 05:02:00,
2013-05-16 22:14:00,49.0,47.0,-100.00,North,0,0.0,1.0,93,0.00,,,0.05,23.000000,,2013-05-17 05:14:00,
2013-05-16 22:21:00,49.0,47.0,-100.00,North,0,0.0,1.0,93,0.00,,,0.05,23.000000,,2013-05-17 05:21:00,
2013-05-16 22:32:00,49.0,47.0,-100.00,North,0,0.0,1.0,93,0.00,,,0.05,23.000000,,2013-05-17 05:32:00,
2013-05-16 23:01:00,47.0,46.0,-100.00,North,0,0.0,1.0,97,0.00,,,0.05,23.000000,,2013-05-17 06:01:00,
2013-05-16 23:11:00,47.0,46.0,-100.00,North,0,0.0,1.0,97,0.00,,,0.05,23.000000,,2013-05-17 06:11:00,
2013-05-16 23:21:00,47.0,46.0,-100.00,North,0,0.0,1.0,97,0.00,,,0.05,23.000000,,2013-05-17 06:21:00,
2013-05-16 23:32:00,47.0,46.0,-100.00,North,0,0.0,1.0,97,0.00,,,0.05,23.000000,,2013-05-17 06:32:00,